Location: Bremen
(53.0793°N, 8.8017°E)
Time: 13:02:59
(UTC+02:00)

Altair - Pass Details

Date: 16 April 2024
Orbit: 1501 x 1682 km, 47.2° (Epoch: 17 May)

Event Time Altitude Azimuth Distance (km) Brightness Sun altitude
Rises 21:07:38 0° 218° (SW) 4,903 10.3 -6.4°
Reaches altitude 10° 21:11:05 10° 211° (SSW) 3,902 9.7 -6.8°
Maximum altitude 21:19:58 39° 147° (SSE) 2,284 8.0 -8.0°
Drops below altitude 10° 21:28:36 10° 84° (E) 3,790 9.1 -9.1°
Sets 21:31:53 0° 77° (ENE) 4,751 9.7 -9.5°
